Regional Weather Roundup
Issued by NWS Little Rock, AR

Home | Current Version | Previous Version | Graphics & Text | Print | Product List | Glossary On
Versions: 1 2 3 4 5 6 7 8 9 10 11 12 13 14 15 16 17 18 19 20 21 22 23 24 25 26 27
000
ASUS44 KLZK 241905
RWRLZK

WEATHER ROUNDUP FOR ARKANSAS
NATIONAL WEATHER SERVICE LITTLE ROCK AR
200 PM CDT FRI OCT 24 2014

NOTE: "FAIR" INDICATES FEW OR NO CLOUDS BELOW 12,000 FEET WITH NO
SIGNIFICANT WEATHER AND/OR OBSTRUCTIONS TO VISIBILITY.

ARZ001-003-010-029-242000-
NORTHWEST ARKANSAS

CITY           SKY/WX    TMP DP  RH WIND       PRES   REMARKS
FAYETTEVILLE   MOSUNNY   73  59  61 SW8       30.10F
FORT SMITH     SUNNY     75  56  51 S6        30.09F
HARRISON       MOSUNNY   74  59  59 W6        30.10F
BENTONVILLE    PTSUNNY   73  59  60 W8        30.11F
ROGERS         PTSUNNY   73  60  63 SW9       30.11F
SILOAM SPGS    PTSUNNY   73  57  56 SW6       30.11F
HIGHFILL       PTSUNNY   74  60  61 SW8       30.09F
SPRINGDALE     PTSUNNY   73  61  64 SW9       30.12F
$$

ARZ004-005-016-242000-
NORTH CENTRAL ARKANSAS

CITY           SKY/WX    TMP DP  RH WIND       PRES   REMARKS
BATESVILLE     PTSUNNY   73  55  53 W5        30.11F
FLIPPIN        MOSUNNY   72  55  56 CALM      30.11F
MTN HOME       MOSUNNY   71  57  61 VRB3      30.10F
$$

ARZ040-041-242000-
WEST CENTRAL ARKANSAS

CITY           SKY/WX    TMP DP  RH WIND       PRES   REMARKS
MENA           SUNNY     77  59  53 CALM      30.14F
MOUNT IDA      SUNNY     76  59  55 CALM      30.10F
$$

ARZ009-017-025-026-028-242000-
NORTHEAST ARKANSAS

CITY           SKY/WX    TMP DP  RH WIND       PRES   REMARKS
CORNING        FAIR      68  57  68 N5        30.11F
JONESBORO      SUNNY     71  53  52 NW7       30.10F
NEWPORT        SUNNY     75  52  44 VRB5      30.12F
WALNUT RIDGE   SUNNY     70  32  24 NW3       30.10F
BLYTHEVILLE    CLOUDY    74  53  48 VRB3      30.11F
NW BLYTHEVILLE PTSUNNY   72  52  49 NW6       30.11F
$$

ARZ022-023-033-042-044-242000-
CENTRAL ARKANSAS

CITY           SKY/WX    TMP DP  RH WIND       PRES   REMARKS
LITTLE ROCK    MOSUNNY   77  50  38 NW5       30.12F
N LITTLE ROCK  MOSUNNY   73  56  54 N3        30.12F
JACKSONVILLE   SUNNY     75  53  46 NW7       30.12F
SEARCY         MOSUNNY   75  54  47 VRB6      30.12F
HOT SPRINGS    SUNNY     73  54  51 CALM      30.13F
RUSSELLVILLE   MOSUNNY   73  54  51 VRB5      30.11F
$$

ARZ036-242000-
EAST ARKANSAS

CITY           SKY/WX    TMP DP  RH WIND       PRES   REMARKS
WEST MEMPHIS   SUNNY     73  53  49 VRB3      30.10F
$$

ARZ050-053-066-070-073-242000-
SOUTHWEST ARKANSAS

CITY           SKY/WX    TMP DP  RH WIND       PRES   REMARKS
ARKADELPHIA    FAIR      75  58  55 SW6       30.14F
CAMDEN         SUNNY     77  52  41 NE3       30.13F
TEXARKANA      SUNNY     76  54  46 VRB3      30.14F
EL DORADO      SUNNY     73  52  47 NW3       30.14F
DE QUEEN       SUNNY     73  57  57 VRB3      30.12F
$$

ARZ056-057-069-242000-
SOUTHEAST ARKANSAS

CITY           SKY/WX    TMP DP  RH WIND       PRES   REMARKS
PINE BLUFF     SUNNY     73  52  47 VRB6      30.12F
STUTTGART      SUNNY     73  52  46 W6        30.13F
MONTICELLO     SUNNY     71  52  50 CALM      30.12F

$$





USA.gov is the U.S. government's official web portal to all federal, state and local government web resources and services.